TimeCST,TemperatureF,Dew PointF,Humidity,Sea Level PressureIn,VisibilityMPH,Wind Direction,Wind SpeedMPH,Gust SpeedMPH,PrecipitationIn,Events,Conditions,WindDirDegrees,DateUTC
12:15 AM,43.7,32.2,64,30.09,10.0,SSE,18.4,-,N/A,,Clear,160,2012-11-18 06:15:00
12:35 AM,43.7,32.2,64,30.09,10.0,South,19.6,24.2,N/A,,Clear,170,2012-11-18 06:35:00
1:15 AM,43.2,32.0,65,30.08,10.0,South,18.4,-,N/A,,Clear,170,2012-11-18 07:15:00
1:55 AM,42.8,32.0,66,30.08,10.0,South,16.1,23.0,N/A,,Clear,170,2012-11-18 07:55:00
2:15 AM,42.3,32.0,67,30.08,10.0,South,17.3,-,N/A,,Clear,170,2012-11-18 08:15:00
2:35 AM,42.1,31.8,67,30.08,10.0,SSE,19.6,-,N/A,,Clear,160,2012-11-18 08:35:00
2:55 AM,42.3,31.6,66,30.08,10.0,SSE,17.3,23.0,N/A,,Clear,160,2012-11-18 08:55:00
3:15 AM,43.0,31.1,63,30.07,10.0,South,17.3,21.9,N/A,,Clear,170,2012-11-18 09:15:00
3:35 AM,43.0,30.9,62,30.07,10.0,South,17.3,23.0,N/A,,Clear,170,2012-11-18 09:35:00
3:55 AM,42.8,30.6,62,30.07,10.0,South,13.8,19.6,N/A,,Clear,170,2012-11-18 09:55:00
4:15 AM,43.0,30.2,61,30.06,10.0,South,13.8,20.7,N/A,,Clear,180,2012-11-18 10:15:00
4:35 AM,42.8,30.0,61,30.06,10.0,South,13.8,19.6,N/A,,Clear,180,2012-11-18 10:35:00
4:55 AM,42.1,29.7,61,30.06,10.0,South,13.8,21.9,N/A,,Clear,180,2012-11-18 10:55:00
5:15 AM,41.0,29.3,63,30.06,10.0,South,15.0,20.7,N/A,,Clear,180,2012-11-18 11:15:00
5:34 AM,40.5,29.3,64,30.06,10.0,South,15.0,21.9,N/A,,Clear,190,2012-11-18 11:34:00
5:55 AM,40.1,28.9,64,30.06,10.0,South,16.1,21.9,N/A,,Clear,190,2012-11-18 11:55:00
6:15 AM,39.6,28.9,66,30.05,10.0,South,16.1,-,N/A,,Clear,190,2012-11-18 12:15:00
6:35 AM,39.2,28.8,66,30.05,10.0,South,15.0,19.6,N/A,,Clear,190,2012-11-18 12:35:00
6:55 AM,38.5,28.4,67,30.05,10.0,South,13.8,19.6,N/A,,Clear,180,2012-11-18 12:55:00
7:15 AM,38.3,28.4,68,30.05,10.0,South,15.0,-,N/A,,Clear,190,2012-11-18 13:15:00
7:35 AM,38.5,28.4,67,30.05,10.0,South,16.1,-,N/A,,Clear,190,2012-11-18 13:35:00
7:55 AM,39.2,28.4,65,30.05,10.0,South,17.3,23.0,N/A,,Clear,190,2012-11-18 13:55:00
8:15 AM,40.1,28.4,63,30.06,10.0,South,13.8,-,N/A,,Clear,190,2012-11-18 14:15:00
8:35 AM,41.0,28.8,62,30.05,10.0,South,19.6,23.0,N/A,,Clear,190,2012-11-18 14:35:00
8:54 AM,42.1,29.1,60,30.05,10.0,South,17.3,-,N/A,,Clear,190,2012-11-18 14:54:00
9:15 AM,43.2,29.3,58,30.05,10.0,South,19.6,24.2,N/A,,Clear,190,2012-11-18 15:15:00
9:35 AM,44.1,29.3,56,30.06,10.0,South,19.6,-,N/A,,Clear,190,2012-11-18 15:35:00
9:55 AM,45.5,29.8,54,30.06,10.0,SSW,19.6,24.2,N/A,,Clear,200,2012-11-18 15:55:00
10:15 AM,46.4,30.0,53,30.06,10.0,SSW,19.6,-,N/A,,Clear,200,2012-11-18 16:15:00
10:35 AM,48.0,30.9,52,30.06,10.0,SSW,16.1,-,N/A,,Clear,200,2012-11-18 16:35:00
10:55 AM,48.9,31.6,51,30.06,10.0,South,16.1,19.6,N/A,,Clear,180,2012-11-18 16:55:00
11:15 AM,49.6,31.8,50,30.06,10.0,South,10.4,19.6,N/A,,Clear,190,2012-11-18 17:15:00
11:35 AM,49.5,31.8,51,30.05,10.0,South,12.7,17.3,N/A,,Clear,190,2012-11-18 17:35:00
11:55 AM,52.0,32.0,47,30.04,10.0,South,17.3,-,N/A,,Clear,180,2012-11-18 17:55:00
12:14 PM,53.6,32.2,44,30.03,10.0,South,15.0,20.7,N/A,,Scattered Clouds,180,2012-11-18 18:14:00
12:35 PM,53.8,32.7,45,30.03,10.0,South,17.3,-,N/A,,Clear,190,2012-11-18 18:35:00
12:55 PM,55.9,32.7,41,30.02,10.0,South,19.6,23.0,N/A,,Scattered Clouds,170,2012-11-18 18:55:00
1:15 PM,56.7,33.3,41,30.02,10.0,South,20.7,24.2,N/A,,Scattered Clouds,180,2012-11-18 19:15:00
1:35 PM,56.5,33.1,41,30.01,10.0,South,15.0,20.7,N/A,,Clear,170,2012-11-18 19:35:00
1:55 PM,56.3,33.3,42,30.01,10.0,South,17.3,20.7,N/A,,Clear,170,2012-11-18 19:55:00
2:15 PM,56.1,32.9,41,30.01,10.0,South,17.3,21.9,N/A,,Clear,190,2012-11-18 20:15:00
2:35 PM,56.3,33.1,41,30.00,10.0,South,18.4,25.3,N/A,,Clear,180,2012-11-18 20:35:00
2:55 PM,55.6,33.6,44,30.00,10.0,South,17.3,-,N/A,,Clear,170,2012-11-18 20:55:00
3:15 PM,55.4,33.4,43,30.00,10.0,South,16.1,-,N/A,,Clear,170,2012-11-18 21:15:00
3:35 PM,55.4,34.2,45,30.00,10.0,SSE,13.8,-,N/A,,Clear,160,2012-11-18 21:35:00
3:55 PM,54.9,34.3,46,30.00,10.0,South,15.0,-,N/A,,Clear,170,2012-11-18 21:55:00
4:15 PM,54.7,34.5,47,30.00,10.0,South,13.8,-,N/A,,Clear,170,2012-11-18 22:15:00
4:35 PM,54.1,34.0,47,30.00,10.0,SSE,11.5,-,N/A,,Clear,160,2012-11-18 22:35:00
4:55 PM,52.7,34.3,50,30.00,10.0,SSE,11.5,-,N/A,,Clear,160,2012-11-18 22:55:00
5:15 PM,51.4,34.3,52,30.01,10.0,SSE,11.5,-,N/A,,Clear,150,2012-11-18 23:15:00
5:35 PM,50.5,33.8,53,30.01,10.0,SSE,12.7,-,N/A,,Clear,150,2012-11-18 23:35:00
5:54 PM,49.1,33.8,56,30.02,10.0,SSE,11.5,-,N/A,,Clear,150,2012-11-18 23:54:00
6:15 PM,48.6,33.1,55,30.02,10.0,SSE,12.7,-,N/A,,Clear,160,2012-11-19 00:15:00
6:35 PM,48.4,32.7,55,30.02,10.0,SSE,12.7,-,N/A,,Clear,150,2012-11-19 00:35:00
6:55 PM,47.8,32.5,55,30.02,10.0,SSE,12.7,-,N/A,,Clear,160,2012-11-19 00:55:00
7:15 PM,47.7,32.5,56,30.03,10.0,SSE,13.8,-,N/A,,Clear,160,2012-11-19 01:15:00
7:35 PM,47.5,32.4,56,30.04,10.0,SSE,13.8,-,N/A,,Clear,160,2012-11-19 01:35:00
7:55 PM,47.5,32.5,56,30.04,10.0,SSE,16.1,-,N/A,,Clear,160,2012-11-19 01:55:00
8:15 PM,47.3,32.5,57,30.03,10.0,South,16.1,-,N/A,,Clear,170,2012-11-19 02:15:00
8:35 PM,46.4,32.4,58,30.04,10.0,SSE,12.7,-,N/A,,Clear,160,2012-11-19 02:35:00
8:55 PM,46.4,32.4,58,30.04,10.0,South,12.7,-,N/A,,Clear,170,2012-11-19 02:55:00
9:15 PM,46.4,32.5,59,30.03,10.0,SSE,16.1,-,N/A,,Clear,160,2012-11-19 03:15:00
9:35 PM,46.0,32.5,59,30.03,10.0,South,13.8,-,N/A,,Clear,170,2012-11-19 03:35:00
9:55 PM,46.4,32.9,59,30.02,10.0,South,17.3,-,N/A,,Clear,170,2012-11-19 03:55:00
10:15 PM,46.4,32.9,59,30.03,10.0,South,13.8,-,N/A,,Clear,170,2012-11-19 04:15:00
10:35 PM,45.1,32.9,62,30.02,10.0,SSE,12.7,-,N/A,,Clear,160,2012-11-19 04:35:00
10:55 PM,43.2,32.9,67,30.02,10.0,SSE,10.4,-,N/A,,Clear,160,2012-11-19 04:55:00
11:15 PM,42.3,32.9,69,30.01,10.0,SSE,10.4,-,N/A,,Clear,160,2012-11-19 05:15:00
11:35 PM,41.9,32.9,70,30.02,10.0,SSE,9.2,-,N/A,,Clear,160,2012-11-19 05:35:00
11:55 PM,41.5,33.1,72,30.02,10.0,SSE,9.2,-,N/A,,Clear,160,2012-11-19 05:55:00